Weather History for KY70 - December, 2011

Change the Weather History Date:

Saturday, December 3, 2011

  Actual Average (KGRR) Record (KGRR)
Temperature  
Mean Temperature 36 °F 33 °F  
Max Temperature 42 °F 39 °F 65 °F (2012)
Min Temperature 29 °F 27 °F -6 °F (1976)
Degree Days  
Heating Degree Days 30 32  
Month to date heating degree days 94  
Since 1 July heating degree days 1432  
Cooling Degree Days 0 0  
Month to date cooling degree days 0  
Year to date cooling degree days 699  
Moisture  
Dew Point 33 °F    
Average Humidity 87    
Maximum Humidity 93    
Minimum Humidity 77    
Precipitation  
Precipitation 0.03 in 0.09 in 1.37 in (1982)
Month to date precipitation 0.28  
Year to date precipitation 36.05  
Snow  
Snow 0.00 in 0.60 in 4.00 in (1996)
Month to date snowfall 1.6  
Since 1 July snowfall 8.9  
Snow Depth -    
Sea Level Pressure  
Sea Level Pressure 30.29 in    
Wind  
Wind Speed 9 mph (SSE)    
Max Wind Speed 15 mph    
Max Gust Speed 16 mph    
Visibility 8 miles    
Events Rain    
T = Trace of Precipitation, MM = Missing Value Source: NWS Daily Summary

Daily Weather History Graph

Daily Weather History Graph

Search for Another Location

Airport or City:

Trip Planner

Search our weather history database for the weather conditions in past years. The results will help you decide how hot, cold, wet, or windy it might be!

Date:

Astronomy

Dec. 03, 2011 Rise Set
Actual Time 7:53 AM EST 5:06 PM EST
Civil Twilight 7:21 AM EST 5:38 PM EST
Nautical Twilight 6:46 AM EST 6:13 PM EST
Astronomical Twilight 6:12 AM EST 6:47 PM EST
Moon 1:18 PM EST (12/3) 1:12 AM EST (12/3)
Length of Visible Light 10h 16m
Length of Day
9h 12m
Waxing Gibbous, 62% of the Moon is Illuminated
Dec 3
Waxing Gibbous
Dec 10
Full
Dec 17
Last Quarter
Dec 24
New
Jan 1
First Quarter

Hourly Weather History & Observations

Time (EST) Temp. Windchill Dew Point Humidity Pressure Visibility Wind Dir Wind Speed Gust Speed Precip Events Conditions
12:13 AM 30.0 °F 21.1 °F 27.0 °F 88% 30.42 in 10.0 mi South 10.4 mph - N/A   Mostly Cloudy
12:33 AM 29.3 °F 22.3 °F 26.6 °F 90% 30.41 in 10.0 mi SSE 6.9 mph - N/A   Scattered Clouds
12:53 AM 29.7 °F 22.0 °F 27.1 °F 90% 30.40 in 10.0 mi SSE 8.1 mph - N/A   Clear
1:13 AM 29.3 °F 21.5 °F 27.1 °F 92% 30.39 in 10.0 mi SSE 8.1 mph - N/A   Clear
1:33 AM 29.1 °F 21.3 °F 27.0 °F 92% 30.39 in 10.0 mi SSE 8.1 mph - N/A   Clear
1:53 AM 29.3 °F 21.5 °F 27.3 °F 92% 30.39 in 10.0 mi SSE 8.1 mph - N/A   Clear
2:13 AM 29.3 °F 21.5 °F 27.3 °F 92% 30.39 in 10.0 mi SSE 8.1 mph - N/A   Clear
2:33 AM 29.5 °F 21.8 °F 27.3 °F 92% 30.38 in 10.0 mi SSE 8.1 mph - N/A   Clear
2:53 AM 30.0 °F 21.7 °F 27.5 °F 90% 30.37 in 10.0 mi SSE 9.2 mph - N/A   Clear
3:13 AM 30.0 °F 21.7 °F 27.9 °F 92% 30.37 in 10.0 mi SSE 9.2 mph - N/A   Clear
3:33 AM 30.0 °F 21.1 °F 28.0 °F 92% 30.36 in 7.0 mi SSE 10.4 mph - N/A   Clear
3:53 AM 30.6 °F 23.1 °F 28.4 °F 92% 30.36 in 7.0 mi SSE 8.1 mph - N/A   Clear
4:13 AM 30.7 °F 20.4 °F 28.9 °F 93% 30.34 in 7.0 mi SSE 13.8 mph - N/A   Clear
4:34 AM 31.5 °F 22.9 °F 29.3 °F 92% 30.34 in 7.0 mi SSE 10.4 mph - N/A   Clear
4:53 AM 31.8 °F 22.8 °F 29.7 °F 92% 30.33 in 7.0 mi SSE 11.5 mph 16.1 mph N/A   Clear
5:14 AM 32.0 °F 23.6 °F 30.0 °F 92% 30.32 in 7.0 mi SSE 10.4 mph - N/A   Clear
5:33 AM 32.2 °F 25.0 °F 30.2 °F 92% 30.32 in 7.0 mi SSE 8.1 mph - N/A   Clear
5:53 AM 32.9 °F 24.7 °F 30.9 °F 92% 30.32 in 7.0 mi South 10.4 mph - N/A   Mostly Cloudy
6:13 AM 32.9 °F 24.1 °F 30.7 °F 92% 30.31 in 7.0 mi SSE 11.5 mph 16.1 mph N/A   Mostly Cloudy
6:33 AM 33.1 °F 24.9 °F 30.9 °F 92% 30.30 in 7.0 mi SSE 10.4 mph - N/A   Mostly Cloudy
6:53 AM 33.6 °F 27.5 °F 31.1 °F 90% 30.32 in 7.0 mi South 6.9 mph - N/A   Overcast
7:14 AM 34.0 °F 26.6 °F 31.5 °F 90% 30.31 in 5.0 mi SSE 9.2 mph - N/A   Overcast
7:33 AM 33.8 °F 27.0 °F 31.8 °F 92% 30.30 in 5.0 mi SSE 8.1 mph - N/A   Overcast
7:53 AM 34.7 °F 27.5 °F 31.8 °F 89% 30.31 in 7.0 mi South 9.2 mph - N/A   Overcast
8:13 AM 35.8 °F 28.3 °F 32.0 °F 86% 30.30 in 7.0 mi South 10.4 mph - N/A   Overcast
8:33 AM 36.1 °F 29.9 °F 32.0 °F 85% 30.31 in 7.0 mi South 8.1 mph - N/A   Overcast
8:53 AM 36.5 °F 30.3 °F 32.0 °F 84% 30.31 in 5.0 mi South 8.1 mph - N/A   Overcast
9:14 AM 36.5 °F 31.0 °F 32.0 °F 84% 30.32 in 7.0 mi South 6.9 mph - N/A   Overcast
9:33 AM 36.5 °F 30.3 °F 32.0 °F 84% 30.32 in 7.0 mi South 8.1 mph - N/A   Overcast
9:53 AM 36.9 °F 30.7 °F 32.5 °F 84% 30.32 in 7.0 mi South 8.1 mph - N/A Rain Light Rain
10:13 AM 37.6 °F 31.0 °F 32.5 °F 82% 30.32 in 7.0 mi South 9.2 mph - N/A   Overcast
10:33 AM 38.3 °F 31.9 °F 32.5 °F 80% 30.31 in 7.0 mi South 9.2 mph - N/A   Overcast
10:53 AM 38.3 °F 32.5 °F 33.8 °F 84% 30.30 in 4.0 mi South 8.1 mph - 0.01 in Rain Light Rain
10:59 AM 38.3 °F 31.9 °F 33.8 °F 84% 30.31 in 5.0 mi South 9.2 mph - 0.01 in Rain Light Rain
11:13 AM 38.3 °F 32.5 °F 34.2 °F 85% 30.30 in 7.0 mi South 8.1 mph - 0.01 in Rain Light Rain
11:33 AM 39.2 °F 33.0 °F 34.7 °F 84% 30.29 in 10.0 mi South 9.2 mph - 0.01 in Rain Rain
11:53 AM 39.7 °F 32.3 °F 35.4 °F 85% 30.29 in 10.0 mi South 12.7 mph - 0.01 in   Overcast
11:59 AM 39.7 °F 33.7 °F 35.2 °F 84% 30.29 in 10.0 mi South 9.2 mph - 0.01 in   Overcast
12:13 PM 40.1 °F 34.7 °F 35.6 °F 84% 30.28 in 7.0 mi SSW 8.1 mph - N/A Rain Light Rain
12:33 PM 40.1 °F 35.3 °F 35.8 °F 85% 30.27 in 10.0 mi South 6.9 mph - N/A   Overcast
12:54 PM 40.3 °F 35.5 °F 35.8 °F 84% 30.27 in 10.0 mi South 6.9 mph - N/A   Overcast
1:13 PM 40.1 °F 36.1 °F 35.8 °F 85% 30.26 in 7.0 mi South 5.8 mph - N/A   Overcast
1:33 PM 40.5 °F 35.1 °F 35.8 °F 83% 30.25 in 10.0 mi South 8.1 mph - N/A   Overcast
1:53 PM 41.0 °F 35.2 °F 35.6 °F 81% 30.24 in 10.0 mi South 9.2 mph - N/A   Overcast
2:13 PM 41.5 °F 35.9 °F 35.6 °F 79% 30.24 in 10.0 mi South 9.2 mph - N/A   Overcast
2:33 PM 42.1 °F 36.6 °F 36.1 °F 79% 30.24 in 10.0 mi South 9.2 mph - N/A   Overcast
2:54 PM 42.8 °F 37.5 °F 36.1 °F 77% 30.24 in 10.0 mi South 9.2 mph - N/A   Light Drizzle
3:13 PM 42.8 °F 37.0 °F 36.5 °F 78% 30.24 in 10.0 mi South 10.4 mph - N/A Rain Rain
3:33 PM 42.4 °F 37.5 °F 36.7 °F 80% 30.23 in 10.0 mi South 8.1 mph - N/A Rain Rain
3:53 PM 41.7 °F 36.7 °F 37.6 °F 85% 30.22 in 5.0 mi South 8.1 mph - 0.01 in Rain Light Rain
3:59 PM 41.5 °F 35.9 °F 37.8 °F 86% 30.22 in 7.0 mi South 9.2 mph - 0.01 in Rain Light Rain
4:13 PM 41.4 °F 35.7 °F 37.6 °F 86% 30.21 in 10.0 mi SSE 9.2 mph - N/A Rain Rain
4:33 PM 40.5 °F 35.1 °F 37.6 °F 89% 30.19 in 7.0 mi SE 8.1 mph - N/A   Drizzle
4:54 PM 40.1 °F 35.3 °F 37.4 °F 90% 30.16 in 10.0 mi ESE 6.9 mph - N/A   Light Drizzle
5:13 PM 39.6 °F 32.1 °F 36.7 °F 89% 30.17 in 10.0 mi SSE 12.7 mph - N/A   Scattered Clouds
5:33 PM 39.9 °F 33.4 °F 35.6 °F 85% 30.18 in 10.0 mi SSE 10.4 mph - N/A   Clear
5:53 PM 39.2 °F 33.0 °F 34.7 °F 84% 30.17 in 10.0 mi SSE 9.2 mph - N/A   Clear
6:13 PM 38.5 °F 31.1 °F 34.7 °F 86% 30.16 in 10.0 mi SE 11.5 mph - N/A   Scattered Clouds
6:33 PM 38.3 °F 31.9 °F 34.2 °F 85% 30.15 in 10.0 mi SSE 9.2 mph - N/A   Mostly Cloudy
6:54 PM 38.3 °F 29.7 °F 34.2 °F 85% 30.14 in 10.0 mi SSE 15.0 mph - N/A   Scattered Clouds
7:13 PM 39.0 °F 30.6 °F 34.3 °F 83% 30.14 in 10.0 mi SSE 15.0 mph - N/A   Clear
7:34 PM 39.2 °F 30.5 °F 34.3 °F 83% 30.13 in 10.0 mi SSE 16.1 mph - N/A   Clear
7:53 PM 39.4 °F 30.7 °F 34.3 °F 82% 30.12 in 10.0 mi SSE 16.1 mph - N/A   Clear
8:13 PM 39.7 °F 31.9 °F 34.3 °F 81% 30.12 in 10.0 mi SSE 13.8 mph - N/A   Clear
8:33 PM 39.4 °F 31.8 °F 34.2 °F 82% 30.11 in 10.0 mi SSE 12.7 mph - N/A   Clear
8:53 PM 39.9 °F 32.1 °F 34.0 °F 79% 30.11 in 10.0 mi SSE 13.8 mph - N/A   Clear
9:13 PM 40.8 °F 35.0 °F 34.2 °F 77% 30.11 in 10.0 mi SSE 9.2 mph - N/A   Clear
9:33 PM 41.0 °F 34.7 °F 34.7 °F 78% 30.10 in 10.0 mi SSE 10.4 mph - N/A   Clear
9:53 PM 42.1 °F 35.7 °F 34.7 °F 75% 30.10 in 10.0 mi South 11.5 mph - N/A   Clear
10:13 PM 43.0 °F 36.4 °F 35.1 °F 74% 30.08 in 10.0 mi SSE 12.7 mph - N/A   Clear
10:33 PM 43.3 °F 36.1 °F 35.4 °F 74% 30.06 in 10.0 mi SSE 15.0 mph - N/A   Scattered Clouds
10:53 PM 44.2 °F 37.3 °F 35.2 °F 71% 30.06 in 10.0 mi South 15.0 mph - N/A   Mostly Cloudy
11:13 PM 44.6 °F 37.8 °F 35.2 °F 70% 30.05 in 10.0 mi South 15.0 mph - N/A   Overcast
11:33 PM 45.3 °F 39.0 °F 35.6 °F 69% 30.03 in 10.0 mi South 13.8 mph - N/A   Overcast
11:53 PM 45.7 °F 39.8 °F 35.6 °F 68% 30.01 in 10.0 mi South 12.7 mph - N/A   Light Drizzle